Home > Weather > Kitchener > Past weeks

Flag for Canada Past Weather in Kitchener, Ontario, Canada — Yesterday and Last 2 Weeks

Now
75 °F

Partly sunny.


Feels Like: 77 °F
Forecast: N/A
Wind: 6 mph from East

Location: Waterloo Well

Current Time: Aug 27, 2016 at 6:34:31 PM

Latest Report: Aug 27, 2016 at 6:00 PM


Visibility: 9 mi

Pressure: 30.16 "Hg

Humidity: 74%

Dew Point: 66 °F

Location of KitchenerLocation

Past Weather in Kitchener — Graph

°F

Kitchener Temperature Yesterday

Maximum temperature yesterday: 81 °F (at 4:00 PM)
Minimum temperature yesterday: 64 °F (at 10:00 PM)
Average temperature yesterday: 71 °F

High & Low Weather Summary for the Past Weeks

 TemperatureHumidityPressure
High88 °F (Aug 12, 5:00 PM)100% (Aug 13, 4:01 AM)30.28 "Hg (Aug 13, 4:01 AM)
Low50 °F (Aug 22, 7:00 AM)44% (Aug 22, 3:00 PM)29.58 "Hg (Aug 21, 3:00 AM)
Average70 °F80%29.99 "Hg
* Reported Aug 12 5:00 PM — Aug 27 5:00 PM, Kitchener, Weather by CustomWeather, © 2016

Note: Actual official high and low records may vary slightly from our data, if they occured in-between our weather recording intervals... More about our weather records

Advertising

Kitchener Weather History for the Previous 24 Hours

Scroll right to see more
 ConditionsComfort  
Time TempWeatherWind HumidityBarometerVisibility
5:00 PM
Sat, Aug 27
77 °FScattered clouds.9 mph65%30.16 "Hg9 mi
4:00 PM79 °FScattered clouds.5 mph58%30.16 "Hg5 mi
3:00 PM79 °FSunny.9 mph61%30.16 "Hg8 mi
2:00 PM77 °FSunny.8 mph65%30.18 "Hg9 mi
1:00 PM77 °FSunny.6 mph61%30.19 "Hg9 mi
12:00 PM75 °FSunny.8 mph61%30.20 "Hg9 mi
11:00 AM73 °FPartly sunny.7 mph65%30.20 "Hg9 mi
10:00 AM72 °FSunny.9 mph65%30.22 "Hg9 mi
9:00 AM66 °FScattered clouds.8 mph78%30.22 "Hg9 mi
8:00 AM57 °FPassing clouds.No wind100%30.23 "Hg9 mi
7:00 AM55 °FFog.No wind100%30.22 "Hg1 mi
6:51 AM55 °FFog.No wind100%30.22 "Hg1 mi
6:04 AM55 °FFog.3 mph100%30.21 "Hg6 mi
5:58 AM55 °FFog.2 mph100%30.21 "Hg3 mi
5:00 AM57 °FFog.2 mph94%30.20 "Hg2 mi
4:53 AM57 °FFog.2 mph100%30.20 "Hg2 mi
4:02 AM57 °FFog.No wind100%30.20 "Hg2 mi
3:00 AM57 °FFog.3 mph100%30.18 "Hg5 mi
2:58 AM57 °FFog.2 mph100%30.18 "Hg5 mi
2:00 AM59 °FClear.No wind94%30.19 "Hg9 mi
1:00 AM59 °FClear.No wind94%30.18 "Hg9 mi
12:00 AM63 °FClear.No wind88%30.18 "Hg9 mi
11:00 PM
Fri, Aug 26
64 °FClear.2 mph78%30.17 "Hg9 mi
10:00 PM64 °FClear.6 mph83%30.16 "Hg9 mi
9:00 PM66 °FSunny.6 mph73%30.14 "Hg9 mi
8:00 PM70 °FSunny.6 mph64%30.12 "Hg9 mi
7:00 PM75 °FSunny.9 mph54%30.11 "Hg9 mi
6:00 PM77 °FSunny.12 mph47%30.09 "Hg9 mi
Weather by CustomWeather, © 2016

See weather overviewHow to use our weather pages